Vero Beach, FL

9:32 AM EDT on August 29, 2016 (GMT -0400)
Vero Beach Municipal

Weather History for KVRB - April, 2013

Change the Weather History Date:

Tuesday, April 16, 2013

  Actual Average Record
Temperature  
Mean Temperature 76 °F 71 °F  
Max Temperature 83 °F 81 °F 92 °F (1944)
Min Temperature 69 °F 61 °F 47 °F (1950)
Degree Days  
Heating Degree Days 0 0  
Month to date heating degree days 0 13  
Since 1 July heating degree days 398 453  
Cooling Degree Days 11 6  
Month to date cooling degree days 155 89  
Year to date cooling degree days 452 357  
Growing Degree Days 26 (Base 50)    
Moisture  
Dew Point 70 °F    
Average Humidity 80    
Maximum Humidity 94    
Minimum Humidity 65    
Precipitation  
Precipitation 0.00 in 0.09 in 2.46 in (1997)
Month to date precipitation 2.12 1.53  
Year to date precipitation 5.77 10.82  
Sea Level Pressure  
Sea Level Pressure 30.12 in    
Wind  
Wind Speed 9 mph (NE)    
Max Wind Speed 17 mph    
Max Gust Speed 22 mph    
Visibility 10 miles    
Events      
T = Trace of Precipitation, MM = Missing Value Source: NWS Daily Summary

Daily Weather History Graph

Daily Weather History Graph

Search for Another Location

Airport or City:

Trip Planner

Search our weather history database for the weather conditions in past years. The results will help you decide how hot, cold, wet, or windy it might be!

Date:

Astronomy

Apr. 16, 2013 Rise Set
Actual Time 6:55 AM EDT 7:47 PM EDT
Civil Twilight 6:31 AM EDT 8:11 PM EDT
Nautical Twilight 6:03 AM EDT 8:39 PM EDT
Astronomical Twilight 5:34 AM EDT 9:08 PM EDT
Moon 11:26 AM EDT (4/16) 12:29 AM EDT (4/16)
Length of Visible Light 13h 39m
Length of Day
12h 51m
Waxing Crescent, 33% of the Moon is Illuminated
Apr 16
Waxing Crescent
Apr 18
First Quarter
Apr 25
Full
May 2
Last Quarter
May 9
New

Hourly Weather History & Observations

Time (EDT) Temp. Heat Index Dew Point Humidity Pressure Visibility Wind Dir Wind Speed Gust Speed Precip Events Conditions
12:53 AM 71.1 °F - 69.1 °F 93% 30.07 in 10.0 mi NNW 3.5 mph - N/A   Clear
1:53 AM 71.1 °F - 69.1 °F 93% 30.07 in 10.0 mi NNW 3.5 mph - N/A   Clear
2:53 AM 71.1 °F - 69.1 °F 93% 30.05 in 10.0 mi North 4.6 mph - N/A   Clear
3:53 AM 71.1 °F - 70.0 °F 96% 30.05 in 7.0 mi NNE 3.5 mph - N/A   Clear
4:53 AM 73.0 °F - 72.0 °F 96% 30.05 in 10.0 mi NE 4.6 mph - N/A   Clear
5:53 AM 73.0 °F - 72.0 °F 96% 30.06 in 10.0 mi ENE 5.8 mph - N/A   Clear
6:53 AM 73.9 °F - 72.0 °F 93% 30.08 in 10.0 mi ENE 5.8 mph - N/A   Clear
8:53 AM 78.1 °F - 73.0 °F 84% 30.13 in 10.0 mi ENE 11.5 mph - N/A   Clear
9:36 AM 78.8 °F - 73.4 °F 83% 30.13 in 10.0 mi NE 12.7 mph - N/A   Mostly Cloudy
9:53 AM 80.1 °F 84.2 °F 73.0 °F 79% 30.13 in 10.0 mi ENE 10.4 mph - N/A   Mostly Cloudy
10:12 AM 80.6 °F 85.4 °F 73.4 °F 79% 30.13 in 10.0 mi ENE 13.8 mph - N/A   Scattered Clouds
10:33 AM 80.6 °F 85.4 °F 73.4 °F 79% 30.14 in 10.0 mi NE 12.7 mph - N/A   Mostly Cloudy
10:53 AM 81.0 °F 85.8 °F 73.0 °F 77% 30.14 in 10.0 mi ENE 12.7 mph 20.7 mph N/A   Mostly Cloudy
11:53 AM 82.0 °F 87.4 °F 73.0 °F 74% 30.15 in 10.0 mi NE 10.4 mph - N/A   Mostly Cloudy
12:16 PM 82.4 °F 88.2 °F 73.4 °F 74% 30.15 in 10.0 mi ENE 10.4 mph - N/A   Mostly Cloudy
12:53 PM 82.0 °F 86.7 °F 72.0 °F 71% 30.15 in 10.0 mi ENE 15.0 mph - N/A   Mostly Cloudy
1:53 PM 82.0 °F 85.9 °F 70.0 °F 67% 30.14 in 10.0 mi NE 15.0 mph 19.6 mph N/A   Mostly Cloudy
2:53 PM 82.0 °F 85.9 °F 70.0 °F 67% 30.12 in 10.0 mi ENE 15.0 mph - N/A   Scattered Clouds
3:53 PM 82.0 °F 85.9 °F 70.0 °F 67% 30.11 in 10.0 mi NE 12.7 mph - N/A   Partly Cloudy
4:53 PM 80.1 °F 83.2 °F 70.0 °F 71% 30.11 in 10.0 mi ENE 12.7 mph - N/A   Scattered Clouds
5:53 PM 78.1 °F - 69.1 °F 74% 30.12 in 10.0 mi NE 15.0 mph - N/A   Mostly Cloudy
6:53 PM 77.0 °F - 68.0 °F 74% 30.13 in 10.0 mi NE 9.2 mph - N/A   Mostly Cloudy
7:00 PM 77.0 °F - 68.0 °F 74% 30.13 in 10.0 mi NE 8.1 mph - N/A   Clear
7:53 PM 75.0 °F - 66.9 °F 76% 30.13 in 10.0 mi NE 10.4 mph - N/A   Clear
8:53 PM 75.0 °F - 68.0 °F 79% 30.14 in 10.0 mi NE 8.1 mph - N/A   Clear
9:53 PM 75.0 °F - 68.0 °F 79% 30.15 in 10.0 mi ENE 8.1 mph - N/A   Clear
10:53 PM 73.9 °F - 66.9 °F 79% 30.14 in 10.0 mi ENE 8.1 mph - N/A   Clear
11:53 PM 73.9 °F - 66.9 °F 79% 30.14 in 10.0 mi ENE 8.1 mph - N/A   Clear